Location: Bord�res
(43.2000°N, 0.2167°W)
Time: 14:44:12
(UTC+00:00)

DMSP B5D2-2 - Pass Details

Date: 03 March 2021
Orbit: 789 x 806 km, 98.3° (Epoch: 20 April)

Event Time Altitude Azimuth Distance (km) Brightness Sun altitude
Rises 19:48:10 0° 10° (N) 3,309 7.3 -21.8°
Reaches altitude 10° 19:50:31 10° 8° (N) 2,373 6.6 -22.2°
Maximum altitude 19:55:42 68° 287° (WNW) 856 4.4 -23.1°
Drops below altitude 10° 20:00:51 10° 205° (SSW) 2,348 6.6 -24.0°
Sets 20:03:10 0° 203° (SSW) 3,272 7.4 -24.4°
